This is the latest recevied weather packets stored in our database for station/object KC8JWT. If no packets are shown the sender has not sent any weather packets the latest 10 day(s).
| Time | Temp. | Humidity | Pressure | Rain* | Wind** | Luminosity | Snow |
|---|---|---|---|---|---|---|---|
| 1777767614 | 7.22° C | 71% | 1017 hPa | 0 mm | - | 2 W/m² | - |
| 1777767310 | 7.78° C | 70% | 1017 hPa | 0 mm | - | 3 W/m² | - |
| 1777767008 | 7.78° C | 70% | 1016.8 hPa | 0 mm | - | 6 W/m² | - |
| 1777766705 | 7.78° C | 69% | 1016.9 hPa | 0 mm | - | 9 W/m² | - |
| 1777766402 | 8.33° C | 69% | 1016.6 hPa | 0 mm | - | 14 W/m² | - |
| 1777766098 | 8.33° C | 68% | 1016.9 hPa | 0 mm | - | 19 W/m² | - |
| 1777765796 | 8.33° C | 68% | 1016.8 hPa | 0 mm | - | 24 W/m² | - |
| 1777765492 | 8.89° C | 67% | 1016.6 hPa | 0 mm | - | 28 W/m² | - |
| 1777765190 | 8.89° C | 68% | 1016.6 hPa | 0 mm | - | 34 W/m² | - |
| 1777764890 | 8.89° C | 68% | 1016.5 hPa | 0 mm | - | 40 W/m² | - |
| 1777764587 | 9.44° C | 67% | 1016.3 hPa | 0 mm | - | 46 W/m² | - |
| 1777764283 | 9.44° C | 65% | 1016.4 hPa | 0 mm | - | 55 W/m² | - |
| 1777763980 | 10° C | 64% | 1016.3 hPa | 0 mm | - | 60 W/m² | - |
| 1777763678 | 9.44° C | 62% | 1016.3 hPa | 0 mm | - | 89 W/m² | - |
| 1777763376 | 10° C | 61% | 1016.2 hPa | 0 mm | - | 74 W/m² | - |
| 1777763073 | 10.56° C | 60% | 1016.2 hPa | 0 mm | - | 75 W/m² | - |
| 1777762771 | 10.56° C | 61% | 1016.3 hPa | 0 mm | - | 72 W/m² | - |
| 1777762467 | 10.56° C | 60% | 1016.3 hPa | 0 mm | - | 74 W/m² | - |
| 1777762164 | 10° C | 59% | 1016 hPa | 0 mm | - | 66 W/m² | - |
| 1777761860 | 10.56° C | 58% | 1015.9 hPa | 0 mm | - | 83 W/m² | - |
| 1777761557 | 10.56° C | 59% | 1016.1 hPa | 0 mm | - | 102 W/m² | - |
| 1777761255 | 10.56° C | 56% | 1016 hPa | 0 mm | - | 92 W/m² | - |
| 1777760953 | 10.56° C | 56% | 1016.1 hPa | 0 mm | - | 93 W/m² | - |
| 1777760650 | 11.11° C | 53% | 1015.7 hPa | 0 mm | - | 111 W/m² | - |
| 1777760350 | 11.11° C | 53% | 1015.9 hPa | 0 mm | - | 117 W/m² | - |
* Rain latest hour (hover to see other rain measurements)
** Current wind speed in m/s (hover to see current wind gust speed)